• In Deutschland
  • Länderverzeichnis
  • Für 7 Tage
  • Wassertemperatur
  • Satellitenkarten
  • Wetterkarte
  • Widgets
  • user-avatar
    Anmelden

    Stündliche Wetter Baku

    Heute, 23 April, Sonntag

    Zeit Temperatur Niederschläge Wind Luftdruck Luftfeuchtigkeit
    00:00 +9°C° 0 mm 5 m/S 767 mmHg 69%
    01:00 +10°C° 0 mm 4 m/S 767 mmHg 70%
    02:00 +10°C° 0 mm 3 m/S 766 mmHg 71%
    03:00 +9°C° 0 mm 2 m/S 766 mmHg 71%
    04:00 +10°C° 0 mm 2 m/S 766 mmHg 70%
    05:00 +10°C° 0 mm 2 m/S 766 mmHg 69%
    06:00 +11°C° 0 mm 3 m/S 766 mmHg 67%
    07:00 +12°C° 0 mm 3 m/S 765 mmHg 64%
    08:00 +13°C° 0 mm 4 m/S 764 mmHg 60%
    09:00 +15°C° 0 mm 5 m/S 764 mmHg 53%
    10:00 +16°C° 0 mm 5 m/S 763 mmHg 51%
    11:00 +17°C° 0 mm 6 m/S 762 mmHg 49%
    12:00 +19°C° 0 mm 6 m/S 761 mmHg 47%
    13:00 +19°C° 0 mm 6 m/S 760 mmHg 48%
    14:00 +18°C° 0 mm 7 m/S 759 mmHg 49%
    15:00 +18°C° 0 mm 7 m/S 758 mmHg 49%
    16:00 +17°C° 0 mm 7 m/S 757 mmHg 53%
    17:00 +16°C° 0 mm 7 m/S 756 mmHg 57%
    18:00 +15°C° 0 mm 7 m/S 755 mmHg 61%
    19:00 +15°C° 0 mm 6 m/S 755 mmHg 64%
    20:00 +14°C° 0 mm 6 m/S 754 mmHg 67%
    21:00 +14°C° 0 mm 6 m/S 754 mmHg 70%
    22:00 +14°C° 0 mm 6 m/S 753 mmHg 70%
    23:00 +14°C° 0 mm 6 m/S 752 mmHg 71%

    Morgen, 24 April, Montag

    Zeit Temperatur Niederschläge Wind Luftdruck Luftfeuchtigkeit
    00:00 +14°C° 0 mm 6 m/S 751 mmHg 71%
    01:00 +15°C° 0 mm 6 m/S 751 mmHg 71%
    02:00 +15°C° 0 mm 7 m/S 751 mmHg 70%
    03:00 +15°C° 0 mm 7 m/S 750 mmHg 69%
    04:00 +15°C° 0 mm 8 m/S 751 mmHg 67%
    05:00 +16°C° 0 mm 10 m/S 751 mmHg 64%
    06:00 +16°C° 0 mm 11 m/S 752 mmHg 61%
    07:00 +17°C° 0 mm 13 m/S 753 mmHg 58%
    08:00 +17°C° 0 mm 15 m/S 754 mmHg 54%
    09:00 +18°C° 0 mm 16 m/S 755 mmHg 51%
    10:00 +18°C° 0 mm 16 m/S 755 mmHg 49%
    11:00 +18°C° 0 mm 16 m/S 756 mmHg 48%
    12:00 +17°C° 0 mm 15 m/S 756 mmHg 47%
    13:00 +17°C° 0,1 mm 15 m/S 757 mmHg 47%
    14:00 +15°C° 0,1 mm 15 m/S 757 mmHg 48%
    15:00 +14°C° 0,1 mm 14 m/S 758 mmHg 48%
    16:00 +14°C° 0,1 mm 13 m/S 758 mmHg 50%
    17:00 +13°C° 0,1 mm 12 m/S 759 mmHg 52%
    18:00 +13°C° 0,1 mm 11 m/S 760 mmHg 53%
    19:00 +12°C° 0 mm 10 m/S 760 mmHg 54%
    20:00 +12°C° 0 mm 10 m/S 761 mmHg 56%
    21:00 +12°C° 0 mm 9 m/S 762 mmHg 57%
    22:00 +12°C° 0 mm 8 m/S 762 mmHg 58%
    23:00 +11°C° 0 mm 6 m/S 762 mmHg 59%

    übermorgen, 25 April, Dienstag

    Zeit Temperatur Niederschläge Wind Luftdruck Luftfeuchtigkeit
    00:00 +12°C° 0 mm 5 m/S 762 mmHg 61%
    01:00 +12°C° 0 mm 5 m/S 763 mmHg 61%
    02:00 +12°C° 0 mm 4 m/S 763 mmHg 62%
    03:00 +12°C° 0 mm 3 m/S 763 mmHg 63%
    04:00 +12°C° 0 mm 4 m/S 764 mmHg 63%
    05:00 +12°C° 0 mm 4 m/S 764 mmHg 62%
    06:00 +13°C° 0 mm 4 m/S 765 mmHg 62%
    07:00 +13°C° 0 mm 6 m/S 765 mmHg 59%
    08:00 +14°C° 0 mm 7 m/S 766 mmHg 57%
    09:00 +15°C° 0 mm 8 m/S 766 mmHg 54%
    10:00 +13°C° 0 mm 10 m/S 767 mmHg 58%
    11:00 +13°C° 0 mm 11 m/S 767 mmHg 61%
    12:00 +12°C° 0 mm 13 m/S 767 mmHg 64%
    13:00 +12°C° 0 mm 13 m/S 768 mmHg 64%
    14:00 +10°C° 0 mm 14 m/S 768 mmHg 64%
    15:00 +9°C° 0 mm 14 m/S 768 mmHg 64%
    16:00 +9°C° 0 mm 14 m/S 769 mmHg 64%
    17:00 +9°C° 0 mm 13 m/S 769 mmHg 64%
    18:00 +8°C° 0 mm 13 m/S 769 mmHg 64%
    19:00 +8°C° 0 mm 12 m/S 770 mmHg 60%
    20:00 +8°C° 0 mm 12 m/S 771 mmHg 56%
    21:00 +8°C° 0 mm 12 m/S 771 mmHg 52%
    22:00 +9°C° 0 mm 11 m/S 772 mmHg 49%
    23:00 +9°C° 0 mm 10 m/S 772 mmHg 46%

    26 April, Mittwoch

    Zeit Temperatur Niederschläge Wind Luftdruck Luftfeuchtigkeit
    00:00 +9°C° 0 mm 10 m/S 772 mmHg 43%
    01:00 +10°C° 0 mm 9 m/S 772 mmHg 44%
    02:00 +10°C° 0 mm 9 m/S 772 mmHg 45%
    03:00 +10°C° 0 mm 9 m/S 773 mmHg 46%
    04:00 +10°C° 0 mm 8 m/S 773 mmHg 47%
    05:00 +10°C° 0 mm 8 m/S 774 mmHg 49%
    06:00 +10°C° 0 mm 8 m/S 774 mmHg 51%
    07:00 +11°C° 0 mm 8 m/S 774 mmHg 50%
    08:00 +11°C° 0 mm 8 m/S 775 mmHg 50%
    09:00 +12°C° 0 mm 7 m/S 775 mmHg 50%
    10:00 +14°C° 0 mm 7 m/S 775 mmHg 49%
    11:00 +14°C° 0 mm 6 m/S 775 mmHg 47%
    12:00 +15°C° 0 mm 6 m/S 774 mmHg 46%
    13:00 +14°C° 0 mm 5 m/S 774 mmHg 46%
    14:00 +14°C° 0 mm 5 m/S 774 mmHg 47%
    15:00 +14°C° 0 mm 5 m/S 773 mmHg 47%
    16:00 +14°C° 0 mm 4 m/S 773 mmHg 50%
    17:00 +13°C° 0 mm 4 m/S 773 mmHg 54%
    18:00 +12°C° 0 mm 4 m/S 773 mmHg 57%
    19:00 +12°C° 0 mm 3 m/S 773 mmHg 60%
    20:00 +11°C° 0 mm 3 m/S 774 mmHg 63%
    21:00 +10°C° 0 mm 2 m/S 774 mmHg 67%
    22:00 +10°C° 0 mm 2 m/S 774 mmHg 67%
    23:00 +10°C° 0 mm 2 m/S 773 mmHg 67%

    27 April, Donnerstag

    Zeit Temperatur Niederschläge Wind Luftdruck Luftfeuchtigkeit
    00:00 +9°C° 0 mm 2 m/S 773 mmHg 67%
    01:00 +9°C° 0 mm 2 m/S 773 mmHg 68%
    02:00 +9°C° 0 mm 2 m/S 773 mmHg 69%
    03:00 +8°C° 0 mm 2 m/S 772 mmHg 70%
    04:00 +9°C° 0 mm 2 m/S 773 mmHg 68%
    05:00 +10°C° 0 mm 2 m/S 773 mmHg 65%
    06:00 +11°C° 0 mm 1 m/S 773 mmHg 62%
    07:00 +12°C° 0 mm 2 m/S 773 mmHg 56%
    08:00 +14°C° 0 mm 2 m/S 773 mmHg 49%
    09:00 +15°C° 0 mm 2 m/S 773 mmHg 43%
    10:00 +16°C° 0 mm 2 m/S 773 mmHg 42%
    11:00 +17°C° 0 mm 3 m/S 772 mmHg 40%
    12:00 +18°C° 0 mm 3 m/S 772 mmHg 39%
    13:00 +18°C° 0 mm 4 m/S 772 mmHg 39%
    14:00 +18°C° 0 mm 4 m/S 771 mmHg 38%
    15:00 +17°C° 0 mm 5 m/S 771 mmHg 38%
    16:00 +18°C° 0 mm 4 m/S 771 mmHg 39%
    17:00 +17°C° 0 mm 4 m/S 771 mmHg 41%
    18:00 +15°C° 0 mm 4 m/S 771 mmHg 43%
    19:00 +16°C° 0 mm 3 m/S 771 mmHg 46%
    20:00 +14°C° 0 mm 3 m/S 771 mmHg 49%
    21:00 +14°C° 0 mm 2 m/S 772 mmHg 52%
    22:00 +14°C° 0 mm 2 m/S 771 mmHg 53%
    23:00 +13°C° 0 mm 2 m/S 771 mmHg 54%

    28 April, Freitag

    Zeit Temperatur Niederschläge Wind Luftdruck Luftfeuchtigkeit
    00:00 +13°C° 0 mm 2 m/S 771 mmHg 54%
    01:00 +13°C° 0 mm 2 m/S 771 mmHg 55%
    02:00 +12°C° 0 mm 2 m/S 770 mmHg 56%
    03:00 +12°C° 0 mm 2 m/S 770 mmHg 57%
    04:00 +13°C° 0 mm 2 m/S 770 mmHg 55%
    05:00 +13°C° 0 mm 3 m/S 771 mmHg 54%
    06:00 +13°C° 0 mm 3 m/S 771 mmHg 52%
    07:00 +15°C° 0 mm 4 m/S 771 mmHg 48%
    08:00 +16°C° 0 mm 5 m/S 771 mmHg 45%
    09:00 +19°C° 0 mm 6 m/S 771 mmHg 41%
    10:00 +18°C° 0 mm 7 m/S 771 mmHg 40%
    11:00 +18°C° 0 mm 7 m/S 770 mmHg 40%
    12:00 +20°C° 0 mm 7 m/S 770 mmHg 40%
    13:00 +20°C° 0 mm 7 m/S 769 mmHg 40%
    14:00 +18°C° 0 mm 7 m/S 769 mmHg 40%
    15:00 +19°C° 0 mm 6 m/S 768 mmHg 40%
    16:00 +17°C° 0 mm 5 m/S 768 mmHg 41%
    17:00 +17°C° 0 mm 5 m/S 768 mmHg 43%
    18:00 +17°C° 0 mm 4 m/S 768 mmHg 44%
    19:00 +16°C° 0 mm 3 m/S 768 mmHg 47%
    20:00 +16°C° 0 mm 3 m/S 768 mmHg 49%
    21:00 +15°C° 0 mm 2 m/S 768 mmHg 52%
    22:00 +15°C° 0 mm 2 m/S 768 mmHg 50%
    23:00 +15°C° 0 mm 2 m/S 767 mmHg 48%
    Mehr zeigen